Home > Weather > Altstätten > Past weeks

Flag for Switzerland Past Weather in Altstätten, St. Gallen, Switzerland — Yesterday and Last 2 Weeks

Now
63 °F

Broken clouds.


Feels Like: 63 °F
Forecast: 56 / 71 °F
Wind: 6 mph from Southeast

Location: Saint Gallen-Altenrhein

Current Time: May 28, 2016 at 8:05:12 AM

Latest Report: May 28, 2016 at 7:20 AM


Visibility: N/A

Pressure: 29.98 "Hg

Humidity: 88%

Dew Point: 59 °F

Location of AltstättenLocation

Past Weather in Altstätten — Graph

°F

Altstätten Temperature Yesterday

Maximum temperature yesterday: 77 °F (at 4:50 PM)
Minimum temperature yesterday: 55 °F (at 3:20 AM)
Average temperature yesterday: 66 °F

High & Low Weather Summary for the Past Weeks

 TemperatureHumidityPressure
High82 °F (May 22, 2:20 PM)100% (May 13, 6:20 AM)30.18 "Hg (May 13, 6:20 AM)
Low43 °F (May 16, 5:20 AM)18% (May 22, 7:20 PM)29.50 "Hg (May 13, 6:20 AM)
Average55 °F77%29.97 "Hg
* Reported May 13 6:20 AM — May 28 6:50 AM, Altstätten, Weather by CustomWeather, © 2016

Note: Actual official high and low records may vary slightly from our data, if they occured in-between our weather recording intervals... More about our weather records

Advertising

Altstätten Weather History for the Previous 24 Hours

Scroll right to see more
 ConditionsComfort  
Time TempWeatherWind HumidityBarometerVisibility
6:50 AM
Sat, May 28
61 °FSprinkles. Overcast.7 mph94%29.98 "HgN/A
6:20 AM59 °FMostly cloudy.8 mph100%30.01 "HgN/A
5:50 AM59 °FLight rain. Passing clouds.8 mph100%30.01 "Hg6 mi
5:20 AM61 °FRain. Passing clouds.3 mph94%30.04 "Hg4 mi
4:50 AM61 °FRain showers. Passing clouds.8 mph94%30.01 "Hg3 mi
4:20 AM61 °FSprinkles. Partly cloudy.5 mph94%29.98 "HgN/A
3:50 AM59 °FPassing clouds.1 mph94%29.95 "HgN/A
3:20 AM59 °FClear.1 mph94%29.95 "Hg10 mi
2:50 AM59 °FClear.2 mph94%29.95 "Hg10 mi
2:20 AM59 °FClear.3 mph94%29.95 "HgN/A
1:50 AM59 °FCool.2 mph94%29.95 "HgN/A
1:20 AM61 °FClear.3 mph88%29.95 "Hg10 mi
12:50 AM61 °FPassing clouds.3 mph88%29.95 "HgN/A
12:20 AM63 °FPassing clouds.6 mph83%29.95 "HgN/A
11:50 PM
Fri, May 27
63 °FPassing clouds.6 mph83%29.95 "HgN/A
11:20 PM63 °FPassing clouds.3 mph88%29.95 "HgN/A
10:50 PM64 °FClear.7 mph78%29.95 "Hg10 mi
10:20 PM64 °FPartly cloudy.9 mph78%29.95 "HgN/A
9:50 PM64 °FSprinkles. Partly sunny.6 mph83%29.98 "HgN/A
9:20 PM66 °FThundershowers. Broken clouds.7 mph64%29.98 "HgN/A
8:50 PM66 °FStrong thunderstorms. Broken clouds.14 mph68%29.95 "HgN/A
8:20 PM70 °FLight rain. Partly sunny.5 mph73%29.92 "HgN/A
7:50 PM73 °FSunny.1 mph50%29.92 "Hg10 mi
7:20 PM75 °FSunny.5 mph44%29.92 "Hg10 mi
6:50 PM77 °FSunny.3 mph44%29.92 "Hg10 mi
6:20 PM75 °FSunny.6 mph44%29.92 "Hg10 mi
5:50 PM77 °FPassing clouds.5 mph44%29.92 "HgN/A
5:20 PM77 °FSunny.3 mph47%29.95 "Hg10 mi
4:50 PM77 °FPassing clouds.5 mph42%29.95 "HgN/A
4:20 PM75 °FPassing clouds.3 mph44%29.95 "HgN/A
3:50 PM75 °FSunny.5 mph50%29.95 "Hg10 mi
3:20 PM75 °FPassing clouds.6 mph47%29.95 "HgN/A
2:50 PM75 °FPassing clouds.5 mph44%29.95 "HgN/A
2:20 PM73 °FSunny.3 mph50%29.95 "Hg10 mi
1:50 PM73 °FPassing clouds.3 mph53%29.98 "HgN/A
1:20 PM73 °FSunny.2 mph53%29.98 "Hg10 mi
12:50 PM72 °FSunny.2 mph65%29.98 "Hg10 mi
12:20 PM72 °FMild.6 mph57%29.98 "HgN/A
11:50 AM70 °FPassing clouds.6 mph57%29.98 "HgN/A
11:20 AM70 °FSunny.6 mph64%29.98 "Hg10 mi
10:50 AM68 °FPassing clouds.5 mph64%30.01 "HgN/A
10:20 AM68 °FSunny.3 mph69%30.01 "Hg10 mi
9:50 AM66 °FSunny.1 mph68%30.01 "Hg10 mi
9:20 AM64 °FSunny.2 mph78%30.01 "Hg10 mi
8:50 AM63 °FPassing clouds.3 mph88%29.98 "HgN/A
8:20 AM63 °FSunny.3 mph83%29.98 "Hg10 mi
Weather by CustomWeather, © 2016

See weather overviewHow to use our weather pages